Year,Month,Day,Hour,Minute,Value (Times are PST for temperature in C)
2008,02,17,00,12,5.40
2008,02,17,00,13,5.40
2008,02,17,00,14,5.40
2008,02,17,00,15,5.40
2008,02,17,00,17,5.40
2008,02,17,00,19,5.40
2008,02,17,00,21,5.30
2008,02,17,00,22,5.30
2008,02,17,00,23,5.30
2008,02,17,00,24,5.30
2008,02,17,00,25,5.30
2008,02,17,00,26,5.30
2008,02,17,00,27,5.30
2008,02,17,00,28,5.30
2008,02,17,00,29,5.30
2008,02,17,00,30,5.30
2008,02,17,00,31,5.30
2008,02,17,00,32,5.30
2008,02,17,00,33,5.30
2008,02,17,00,34,5.30
2008,02,17,00,35,5.30
2008,02,17,00,36,5.30
2008,02,17,00,37,5.30
2008,02,17,00,38,5.30
2008,02,17,00,39,5.30
2008,02,17,00,40,5.30
2008,02,17,00,41,5.40
2008,02,17,00,42,5.40
2008,02,17,00,43,5.40
2008,02,17,00,44,5.40
2008,02,17,00,45,5.40
2008,02,17,00,47,5.40
2008,02,17,00,48,5.40
2008,02,17,00,49,5.40
2008,02,17,00,50,5.50
2008,02,17,00,51,5.50
2008,02,17,00,52,5.50
2008,02,17,00,53,5.50
2008,02,17,00,55,5.50
2008,02,17,00,56,5.50
2008,02,17,00,58,5.50
2008,02,17,01,00,5.50
2008,02,17,01,01,5.50
2008,02,17,01,02,5.50
2008,02,17,01,03,5.50
2008,02,17,01,05,5.50
2008,02,17,01,06,5.50
2008,02,17,01,07,5.50
2008,02,17,01,08,5.50
2008,02,17,01,10,5.30
2008,02,17,01,11,5.30
2008,02,17,01,12,5.30
2008,02,17,01,13,5.30
2008,02,17,01,14,5.30
2008,02,17,01,15,5.30
2008,02,17,01,16,5.30
2008,02,17,01,17,5.30
2008,02,17,01,18,5.30
2008,02,17,01,19,5.30
2008,02,17,01,20,5.30
2008,02,17,01,21,5.30
2008,02,17,01,22,5.30
2008,02,17,01,23,5.30
2008,02,17,01,24,5.30
2008,02,17,01,25,5.30
2008,02,17,01,26,5.30
2008,02,17,01,27,5.30
2008,02,17,01,28,5.30
2008,02,17,01,29,5.30
2008,02,17,01,30,5.30
2008,02,17,01,32,5.30
2008,02,17,01,33,5.30
2008,02,17,01,34,5.30
2008,02,17,01,36,5.30
2008,02,17,01,37,5.30
2008,02,17,01,39,5.40
2008,02,17,01,40,5.40
2008,02,17,01,41,5.40
2008,02,17,01,42,5.40
2008,02,17,01,43,5.40
2008,02,17,01,44,5.40
2008,02,17,01,45,5.40
2008,02,17,01,46,5.40
2008,02,17,01,47,5.40
2008,02,17,01,48,5.40
2008,02,17,01,49,5.40
2008,02,17,01,50,5.40
2008,02,17,01,51,5.40
2008,02,17,01,52,5.40
2008,02,17,01,53,5.40
2008,02,17,01,54,5.40
2008,02,17,01,55,5.40
2008,02,17,01,56,5.40
2008,02,17,01,57,5.40
2008,02,17,01,58,5.40
2008,02,17,01,59,5.40
2008,02,17,02,00,5.40
2008,02,17,02,01,5.40
2008,02,17,02,02,5.40
2008,02,17,02,03,5.40
2008,02,17,02,04,5.40
2008,02,17,02,05,5.10
2008,02,17,02,07,5.10
2008,02,17,02,08,5.10
2008,02,17,02,09,5.10
2008,02,17,02,10,5.10
2008,02,17,02,11,5.10
2008,02,17,02,12,5.10
2008,02,17,02,13,5.10
2008,02,17,02,14,4.90
2008,02,17,02,15,4.90
2008,02,17,02,16,4.90
2008,02,17,02,17,4.90
2008,02,17,02,18,4.90
2008,02,17,02,19,4.90
2008,02,17,02,20,4.90
2008,02,17,02,21,4.90
2008,02,17,02,22,4.90
2008,02,17,02,23,4.90
2008,02,17,02,24,4.90
2008,02,17,02,25,4.90
2008,02,17,02,26,4.90
2008,02,17,02,27,4.90
2008,02,17,02,28,4.90
2008,02,17,02,29,4.90
2008,02,17,02,30,4.90
2008,02,17,02,31,4.90
2008,02,17,02,32,4.90
2008,02,17,02,33,4.70
2008,02,17,02,34,4.70
2008,02,17,02,35,4.70
2008,02,17,02,36,4.70
2008,02,17,02,37,4.70
2008,02,17,02,38,4.70
2008,02,17,02,40,4.70
2008,02,17,02,41,4.70
2008,02,17,02,42,4.70
2008,02,17,02,43,4.70
2008,02,17,02,44,4.70
2008,02,17,02,45,4.70
2008,02,17,02,46,4.70
2008,02,17,02,47,4.70
2008,02,17,02,48,4.70
2008,02,17,02,49,4.70
2008,02,17,02,50,4.70
2008,02,17,02,51,4.70
2008,02,17,02,52,4.70
2008,02,17,02,53,4.70
2008,02,17,02,55,4.70
2008,02,17,02,56,4.70
2008,02,17,02,57,4.70
2008,02,17,02,58,4.70
2008,02,17,03,00,4.70
2008,02,17,03,01,4.90
2008,02,17,03,02,4.90
2008,02,17,03,03,4.90
2008,02,17,03,04,4.90
2008,02,17,03,05,4.90
2008,02,17,03,06,4.90
2008,02,17,03,07,4.90
2008,02,17,03,08,4.90
2008,02,17,03,09,4.90
2008,02,17,03,10,4.80
2008,02,17,03,11,4.80
2008,02,17,03,12,4.80
2008,02,17,03,13,4.80
2008,02,17,03,14,4.80
2008,02,17,03,15,4.80
2008,02,17,03,16,4.80
2008,02,17,03,17,4.80
2008,02,17,03,18,4.80
2008,02,17,03,19,4.80
2008,02,17,03,20,4.80
2008,02,17,03,21,4.80
2008,02,17,03,22,4.80
2008,02,17,03,23,4.80
2008,02,17,03,24,4.80
2008,02,17,03,25,4.80
2008,02,17,03,26,4.80
2008,02,17,03,27,4.80
2008,02,17,03,28,4.80
2008,02,17,03,29,4.90
2008,02,17,03,30,4.90
2008,02,17,03,31,4.90
2008,02,17,03,32,4.90
2008,02,17,03,34,4.90
2008,02,17,03,35,4.90
2008,02,17,03,36,4.90
2008,02,17,03,37,4.90
2008,02,17,03,38,4.90
2008,02,17,03,39,4.90
2008,02,17,03,40,4.90
2008,02,17,03,41,4.90
2008,02,17,03,43,4.90
2008,02,17,03,44,4.90
2008,02,17,03,45,4.90
2008,02,17,03,46,4.90
2008,02,17,03,47,4.90
2008,02,17,03,48,4.90
2008,02,17,03,49,4.90
2008,02,17,03,50,4.90
2008,02,17,03,51,4.90
2008,02,17,03,52,4.90
2008,02,17,03,53,4.90
2008,02,17,03,55,4.80
2008,02,17,03,56,4.80
2008,02,17,03,57,4.80
2008,02,17,03,58,4.80
2008,02,17,03,59,4.80
2008,02,17,04,00,4.80
2008,02,17,04,01,4.80
2008,02,17,04,02,4.80
2008,02,17,04,03,4.80
2008,02,17,04,04,4.80
2008,02,17,04,05,4.80
2008,02,17,04,06,4.80
2008,02,17,04,07,4.80
2008,02,17,04,08,4.80
2008,02,17,04,09,4.80
2008,02,17,04,10,4.80
2008,02,17,04,11,4.80
2008,02,17,04,13,4.80
2008,02,17,04,14,4.80
2008,02,17,04,15,4.80
2008,02,17,04,16,4.80
2008,02,17,04,17,4.80
2008,02,17,04,18,4.80
2008,02,17,04,19,4.80
2008,02,17,04,20,4.80
2008,02,17,04,21,4.80
2008,02,17,04,22,4.80
2008,02,17,04,23,4.80
2008,02,17,04,24,4.80
2008,02,17,04,25,4.80
2008,02,17,04,26,4.80
2008,02,17,04,27,4.80
2008,02,17,04,29,4.80
2008,02,17,04,30,4.80
2008,02,17,04,31,4.80
2008,02,17,04,32,4.80
2008,02,17,04,33,4.80
2008,02,17,04,34,4.80
2008,02,17,04,35,4.80
2008,02,17,04,36,4.80
2008,02,17,04,37,4.80
2008,02,17,04,39,4.80
2008,02,17,04,40,4.80
2008,02,17,04,41,4.80
2008,02,17,04,42,4.80
2008,02,17,04,43,4.80
2008,02,17,04,44,4.80
2008,02,17,04,45,4.80
2008,02,17,04,46,4.80
2008,02,17,04,47,4.80
2008,02,17,04,48,4.80
2008,02,17,04,49,4.80
2008,02,17,04,50,4.80
2008,02,17,04,51,4.80
2008,02,17,04,52,4.80
2008,02,17,04,53,4.80
2008,02,17,04,54,4.80
2008,02,17,04,55,4.80
2008,02,17,04,56,4.80
2008,02,17,04,57,4.80
2008,02,17,04,58,4.70
2008,02,17,04,59,4.70
2008,02,17,05,01,4.70
2008,02,17,05,02,4.70
2008,02,17,05,03,4.70
2008,02,17,05,04,4.70
2008,02,17,05,06,4.70
2008,02,17,05,07,4.70
2008,02,17,05,09,4.70
2008,02,17,05,10,4.70
2008,02,17,05,11,4.70
2008,02,17,05,12,4.70
2008,02,17,05,13,4.70
2008,02,17,05,14,4.70
2008,02,17,05,15,4.70
2008,02,17,05,16,4.70
2008,02,17,05,17,4.70
2008,02,17,05,18,4.70
2008,02,17,05,19,4.70
2008,02,17,05,20,4.70
2008,02,17,05,21,4.70
2008,02,17,05,23,4.70
2008,02,17,05,24,4.70
2008,02,17,05,25,4.70
2008,02,17,05,26,4.70
2008,02,17,05,27,4.70
2008,02,17,05,28,4.70
2008,02,17,05,30,4.70
2008,02,17,05,31,4.70
2008,02,17,05,32,4.70
2008,02,17,05,33,4.70
2008,02,17,05,34,4.70
2008,02,17,05,35,4.70
2008,02,17,05,36,4.70
2008,02,17,05,37,4.70
2008,02,17,05,38,4.70
2008,02,17,05,39,4.70
2008,02,17,05,40,4.70
2008,02,17,05,41,4.70
2008,02,17,05,42,4.70
2008,02,17,05,43,4.60
2008,02,17,05,44,4.60
2008,02,17,05,45,4.60
2008,02,17,05,46,4.60
2008,02,17,05,47,4.60
2008,02,17,05,48,4.60
2008,02,17,05,49,4.60
2008,02,17,05,50,4.60
2008,02,17,05,51,4.60
2008,02,17,05,52,4.60
2008,02,17,05,53,4.60
2008,02,17,05,54,4.60
2008,02,17,05,55,4.60
2008,02,17,05,56,4.60
2008,02,17,05,57,4.60
2008,02,17,05,58,4.60
2008,02,17,05,59,4.60
2008,02,17,06,00,4.60
2008,02,17,06,01,4.60
2008,02,17,06,02,4.60
2008,02,17,06,03,4.60
2008,02,17,06,04,4.60
2008,02,17,06,06,4.60
2008,02,17,06,07,4.60
2008,02,17,06,08,4.60
2008,02,17,06,09,4.60
2008,02,17,06,10,4.50
2008,02,17,06,11,4.50
2008,02,17,06,12,4.50
2008,02,17,06,13,4.50
2008,02,17,06,14,4.50
2008,02,17,06,15,4.50
2008,02,17,06,16,4.50
2008,02,17,06,17,4.50
2008,02,17,06,18,4.50
2008,02,17,06,19,4.50
2008,02,17,06,20,4.50
2008,02,17,06,21,4.50
2008,02,17,06,23,4.50
2008,02,17,06,24,4.50
2008,02,17,06,25,4.50
2008,02,17,06,26,4.50
2008,02,17,06,27,4.50
2008,02,17,06,28,4.50
2008,02,17,06,29,4.50
2008,02,17,06,31,4.50
2008,02,17,06,32,4.50
2008,02,17,06,33,4.50
2008,02,17,06,34,4.50
2008,02,17,06,35,4.50
2008,02,17,06,36,4.50
2008,02,17,06,37,4.40
2008,02,17,06,38,4.40
2008,02,17,06,39,4.40
2008,02,17,06,40,4.40
2008,02,17,06,41,4.40
2008,02,17,06,42,4.40
2008,02,17,06,43,4.40
2008,02,17,06,44,4.40
2008,02,17,06,46,4.30
2008,02,17,06,47,4.30
2008,02,17,06,48,4.30
2008,02,17,06,50,4.30
2008,02,17,06,51,4.30
2008,02,17,06,52,4.30
2008,02,17,06,53,4.30
2008,02,17,06,54,4.30
2008,02,17,06,55,4.30
2008,02,17,06,56,4.30
2008,02,17,06,57,4.30
2008,02,17,06,58,4.30
2008,02,17,06,59,4.30
2008,02,17,07,00,4.30
2008,02,17,07,01,4.30
2008,02,17,07,02,4.30
2008,02,17,07,03,4.30
2008,02,17,07,04,4.50
2008,02,17,07,05,4.50
2008,02,17,07,06,4.50
2008,02,17,07,07,4.50
2008,02,17,07,08,4.50
2008,02,17,07,09,4.50
2008,02,17,07,10,4.50
2008,02,17,07,11,4.50
2008,02,17,07,12,4.50
2008,02,17,07,13,4.50
2008,02,17,07,14,4.50
2008,02,17,07,15,4.50
2008,02,17,07,16,4.50
2008,02,17,07,17,4.50
2008,02,17,07,18,4.50
2008,02,17,07,19,4.50
2008,02,17,07,20,4.50
2008,02,17,07,21,4.50
2008,02,17,07,23,4.50
2008,02,17,07,24,4.50
2008,02,17,07,26,4.50
2008,02,17,07,27,4.50
2008,02,17,07,28,4.50
2008,02,17,07,29,4.50
2008,02,17,07,31,4.50
2008,02,17,07,32,4.50
2008,02,17,07,33,4.50
2008,02,17,07,34,4.50
2008,02,17,07,35,4.50
2008,02,17,07,36,4.50
2008,02,17,07,37,4.50
2008,02,17,07,38,4.50
2008,02,17,07,39,4.50
2008,02,17,07,40,4.50
2008,02,17,07,41,4.50
2008,02,17,07,42,4.50
2008,02,17,07,43,4.50
2008,02,17,07,44,4.50
2008,02,17,07,45,4.50
2008,02,17,07,46,4.50
2008,02,17,07,47,4.50
2008,02,17,07,48,4.50
2008,02,17,07,50,4.50
2008,02,17,07,51,4.50
2008,02,17,07,52,4.50
2008,02,17,07,53,4.50
2008,02,17,07,54,4.50
2008,02,17,07,55,4.50
2008,02,17,07,56,4.50
2008,02,17,07,57,4.50
2008,02,17,07,58,4.40
2008,02,17,07,59,4.40
2008,02,17,08,00,4.40
2008,02,17,08,01,4.40
2008,02,17,08,02,4.40
2008,02,17,08,04,4.40
2008,02,17,08,05,4.40
2008,02,17,08,06,4.40
2008,02,17,08,07,4.40
2008,02,17,08,08,4.40
2008,02,17,08,09,4.40
2008,02,17,08,10,4.40
2008,02,17,08,11,4.40
2008,02,17,08,12,4.40
2008,02,17,08,13,4.40
2008,02,17,08,14,4.40
2008,02,17,08,15,4.40
2008,02,17,08,17,4.40
2008,02,17,08,18,4.40
2008,02,17,08,20,4.40
2008,02,17,08,21,4.40
2008,02,17,08,22,4.40
2008,02,17,08,24,4.40
2008,02,17,08,25,4.40
2008,02,17,08,26,4.40
2008,02,17,08,28,4.40
2008,02,17,08,29,4.40
2008,02,17,08,30,4.40
2008,02,17,08,31,4.40
2008,02,17,08,32,4.40
2008,02,17,08,33,4.40
2008,02,17,08,34,4.50
2008,02,17,08,35,4.50
2008,02,17,08,36,4.50
2008,02,17,08,37,4.50
2008,02,17,08,38,4.50
2008,02,17,08,39,4.50
2008,02,17,08,40,4.50
2008,02,17,08,41,4.50
2008,02,17,08,42,4.50
2008,02,17,08,43,4.50
2008,02,17,08,44,4.50
2008,02,17,08,45,4.50
2008,02,17,08,47,4.50
2008,02,17,08,48,4.50
2008,02,17,08,49,4.50
2008,02,17,08,50,4.50
2008,02,17,08,51,4.50
2008,02,17,08,52,4.40
2008,02,17,08,53,4.40
2008,02,17,08,54,4.40
2008,02,17,08,55,4.40
2008,02,17,08,56,4.40
2008,02,17,08,57,4.40
2008,02,17,08,58,4.40
2008,02,17,08,59,4.40
2008,02,17,09,00,4.40
2008,02,17,09,01,4.60
2008,02,17,09,02,4.60
2008,02,17,09,03,4.60
2008,02,17,09,04,4.60
2008,02,17,09,05,4.60
2008,02,17,09,06,4.60
2008,02,17,09,07,4.60
2008,02,17,09,08,4.60
2008,02,17,09,10,4.60
2008,02,17,09,11,4.60
2008,02,17,09,12,4.60
2008,02,17,09,13,4.60
2008,02,17,09,14,4.60
2008,02,17,09,16,4.60
2008,02,17,09,17,4.60
2008,02,17,09,18,4.60
2008,02,17,09,19,4.60
2008,02,17,09,20,4.70
2008,02,17,09,21,4.70
2008,02,17,09,22,4.70
2008,02,17,09,23,4.70
2008,02,17,09,24,4.70
2008,02,17,09,25,4.70
2008,02,17,09,26,4.70
2008,02,17,09,27,4.70
2008,02,17,09,28,4.70
2008,02,17,09,29,4.80
2008,02,17,09,30,4.80
2008,02,17,09,31,4.80
2008,02,17,09,32,4.80
2008,02,17,09,33,4.80
2008,02,17,09,34,4.80
2008,02,17,09,35,4.80
2008,02,17,09,36,4.80
2008,02,17,09,37,4.80
2008,02,17,09,38,4.80
2008,02,17,09,39,4.80
2008,02,17,09,40,4.80
2008,02,17,09,41,4.80
2008,02,17,09,42,4.80
2008,02,17,09,43,4.80
2008,02,17,09,44,4.80
2008,02,17,09,45,4.80
2008,02,17,09,46,5.10
2008,02,17,09,47,5.10
2008,02,17,09,49,5.10
2008,02,17,09,50,5.10
2008,02,17,09,51,5.10
2008,02,17,09,52,5.10
2008,02,17,09,53,5.10
2008,02,17,09,54,5.10
2008,02,17,09,55,5.20
2008,02,17,09,56,5.20
2008,02,17,09,57,5.20
2008,02,17,09,58,5.20
2008,02,17,09,59,5.20
2008,02,17,10,00,5.20
2008,02,17,10,01,5.20
2008,02,17,10,02,5.20
2008,02,17,10,03,5.20
2008,02,17,10,04,5.20
2008,02,17,10,05,5.20
2008,02,17,10,06,5.20
2008,02,17,10,07,5.20
2008,02,17,10,08,5.20
2008,02,17,10,09,5.20
2008,02,17,10,10,5.20
2008,02,17,10,11,5.20
2008,02,17,10,12,5.20
2008,02,17,10,13,5.20
2008,02,17,10,14,5.20
2008,02,17,10,15,5.20
2008,02,17,10,16,5.20
2008,02,17,10,17,5.20
2008,02,17,10,18,5.20
2008,02,17,10,19,5.20
2008,02,17,10,20,5.20
2008,02,17,10,21,5.20
2008,02,17,10,23,5.10
2008,02,17,10,24,5.10
2008,02,17,10,26,5.10
2008,02,17,10,27,5.10
2008,02,17,10,28,5.10
2008,02,17,10,29,5.10
2008,02,17,10,30,5.10
2008,02,17,10,31,5.10
2008,02,17,10,32,5.10
2008,02,17,10,34,5.10
2008,02,17,10,35,5.10
2008,02,17,10,36,5.10
2008,02,17,10,37,5.10
2008,02,17,10,38,5.10
2008,02,17,10,39,5.10
2008,02,17,10,40,5.20
2008,02,17,10,41,5.20
2008,02,17,10,42,5.20
2008,02,17,10,43,5.20
2008,02,17,10,44,5.20
2008,02,17,10,45,5.20
2008,02,17,10,46,5.20
2008,02,17,10,47,5.20
2008,02,17,10,49,5.20
2008,02,17,10,50,5.20
2008,02,17,10,51,5.20
2008,02,17,10,52,5.20
2008,02,17,10,53,5.20
2008,02,17,10,54,5.20
2008,02,17,10,55,5.20
2008,02,17,10,56,5.20
2008,02,17,10,57,5.20
2008,02,17,10,58,5.20
2008,02,17,10,59,5.20
2008,02,17,11,00,5.20
2008,02,17,11,01,5.20
2008,02,17,11,02,5.20
2008,02,17,11,03,5.20
2008,02,17,11,04,5.20
2008,02,17,11,05,5.20
2008,02,17,11,06,5.20
2008,02,17,11,07,5.30
2008,02,17,11,08,5.30
2008,02,17,11,09,5.30
2008,02,17,11,10,5.30
2008,02,17,11,11,5.30
2008,02,17,11,12,5.30
2008,02,17,11,13,5.30
2008,02,17,11,14,5.30
2008,02,17,11,15,5.30
2008,02,17,11,17,5.30
2008,02,17,11,18,5.30
2008,02,17,11,19,5.30
2008,02,17,11,21,5.30
2008,02,17,11,22,5.30
2008,02,17,11,23,5.30
2008,02,17,11,24,5.30
2008,02,17,11,25,5.30
2008,02,17,11,26,5.30
2008,02,17,11,27,5.30
2008,02,17,11,28,5.30
2008,02,17,11,29,5.30
2008,02,17,11,30,5.30
2008,02,17,11,31,5.30
2008,02,17,11,32,5.30
2008,02,17,11,33,5.30
2008,02,17,11,35,5.40
2008,02,17,11,36,5.40
2008,02,17,11,37,5.40
2008,02,17,11,38,5.40
2008,02,17,11,39,5.40
2008,02,17,11,40,5.40
2008,02,17,11,41,5.40
2008,02,17,11,42,5.40
2008,02,17,11,43,5.50
2008,02,17,11,44,5.50
2008,02,17,11,45,5.50
2008,02,17,11,46,5.50
2008,02,17,11,47,5.50
2008,02,17,11,48,5.50
2008,02,17,11,49,5.50
2008,02,17,11,50,5.50
2008,02,17,11,51,5.50
2008,02,17,11,53,5.50
2008,02,17,11,54,5.50
2008,02,17,11,55,5.50
2008,02,17,11,56,5.50
2008,02,17,11,57,5.50
2008,02,17,11,58,5.50
2008,02,17,11,59,5.50
2008,02,17,12,00,5.50
2008,02,17,12,01,5.70
2008,02,17,12,02,5.70
2008,02,17,12,03,5.70
2008,02,17,12,04,5.70
2008,02,17,12,05,5.70
2008,02,17,12,06,5.70
2008,02,17,12,08,5.70
2008,02,17,12,09,5.70
2008,02,17,12,10,5.70
2008,02,17,12,11,5.70
2008,02,17,12,12,5.70
2008,02,17,12,13,5.70
2008,02,17,12,14,5.70
2008,02,17,12,15,5.70
2008,02,17,12,16,5.70
2008,02,17,12,17,5.70
2008,02,17,12,18,5.70
2008,02,17,12,19,5.70
2008,02,17,12,20,5.70
2008,02,17,12,21,5.70
2008,02,17,12,22,5.70
2008,02,17,12,23,5.70
2008,02,17,12,24,5.70
2008,02,17,12,25,5.70
2008,02,17,12,26,5.70
2008,02,17,12,27,5.70
2008,02,17,12,28,5.80
2008,02,17,12,30,5.80
2008,02,17,12,31,5.80
2008,02,17,12,32,5.80
2008,02,17,12,33,5.80
2008,02,17,12,34,5.80
2008,02,17,12,35,5.80
2008,02,17,12,36,5.80
2008,02,17,12,38,6.10
2008,02,17,12,39,6.10
2008,02,17,12,40,6.10
2008,02,17,12,41,6.10
2008,02,17,12,42,6.10
2008,02,17,12,43,6.10
2008,02,17,12,44,6.10
2008,02,17,12,45,6.10
2008,02,17,12,46,6.10
2008,02,17,12,47,6.10
2008,02,17,12,48,6.10
2008,02,17,12,49,6.10
2008,02,17,12,50,6.10
2008,02,17,12,51,6.10
2008,02,17,12,52,6.10
2008,02,17,12,53,6.10
2008,02,17,12,55,6.20
2008,02,17,12,56,6.20
2008,02,17,12,58,6.20
2008,02,17,12,59,6.20
2008,02,17,13,00,6.20
2008,02,17,13,01,6.20
2008,02,17,13,02,6.20
2008,02,17,13,03,6.30
2008,02,17,13,04,6.30
2008,02,17,13,05,6.30
2008,02,17,13,07,6.30
2008,02,17,13,08,6.30
2008,02,17,13,09,6.30
2008,02,17,13,11,6.30
2008,02,17,13,12,6.30
2008,02,17,13,13,6.30
2008,02,17,13,14,6.30
2008,02,17,13,15,6.30
2008,02,17,13,16,6.30
2008,02,17,13,17,6.30
2008,02,17,13,18,6.30
2008,02,17,13,19,6.30
2008,02,17,13,21,6.30
2008,02,17,13,22,6.60
2008,02,17,13,23,6.60
2008,02,17,13,24,6.60
2008,02,17,13,25,6.60
2008,02,17,13,26,6.60
2008,02,17,13,27,6.60
2008,02,17,13,28,6.60
2008,02,17,13,29,6.60
2008,02,17,13,30,6.70
2008,02,17,13,31,6.70
2008,02,17,13,32,6.70
2008,02,17,13,33,6.70
2008,02,17,13,34,6.70
2008,02,17,13,35,6.70
2008,02,17,13,36,6.70
2008,02,17,13,37,6.70
2008,02,17,13,39,6.70
2008,02,17,13,40,6.70
2008,02,17,13,41,6.70
2008,02,17,13,42,6.70
2008,02,17,13,43,6.70
2008,02,17,13,44,6.70
2008,02,17,13,45,6.70
2008,02,17,13,46,6.70
2008,02,17,13,47,6.70
2008,02,17,13,48,6.80
2008,02,17,13,49,6.80
2008,02,17,13,51,6.80
2008,02,17,13,52,6.80
2008,02,17,13,53,6.80
2008,02,17,13,54,6.80
2008,02,17,13,56,6.80
2008,02,17,13,57,6.90
2008,02,17,13,58,6.90
2008,02,17,13,59,6.90
2008,02,17,14,00,6.90
2008,02,17,14,01,6.90
2008,02,17,14,02,6.90
2008,02,17,14,03,6.90
2008,02,17,14,04,6.90
2008,02,17,14,05,6.90
2008,02,17,14,06,6.90
2008,02,17,14,07,6.90
2008,02,17,14,09,6.90
2008,02,17,14,10,6.90
2008,02,17,14,11,6.90
2008,02,17,14,12,6.90
2008,02,17,14,13,6.90
2008,02,17,14,14,6.90
2008,02,17,14,15,6.90
2008,02,17,14,16,7.10
2008,02,17,14,17,7.10
2008,02,17,14,18,7.10
2008,02,17,14,20,7.10
2008,02,17,14,21,7.10
2008,02,17,14,22,7.10
2008,02,17,14,23,7.10
2008,02,17,14,25,7.10
2008,02,17,14,26,7.10
2008,02,17,14,27,7.10
2008,02,17,14,28,7.10
2008,02,17,14,30,7.10
2008,02,17,14,31,7.10
2008,02,17,14,33,7.10
2008,02,17,14,34,7.10
2008,02,17,14,36,7.10
2008,02,17,14,37,7.10
2008,02,17,14,38,7.10
2008,02,17,14,40,7.10
2008,02,17,14,41,7.10
2008,02,17,14,42,7.20
2008,02,17,14,43,7.20
2008,02,17,14,44,7.20
2008,02,17,14,45,7.20
2008,02,17,14,46,7.20
2008,02,17,14,47,7.20
2008,02,17,14,48,7.20
2008,02,17,14,49,7.20
2008,02,17,14,50,7.30
2008,02,17,14,52,7.30
2008,02,17,14,53,7.30
2008,02,17,14,54,7.30
2008,02,17,14,55,7.30
2008,02,17,14,56,7.30
2008,02,17,14,57,7.30
2008,02,17,14,59,7.30
2008,02,17,15,01,7.30
2008,02,17,15,02,7.30
2008,02,17,15,03,7.30
2008,02,17,15,04,7.30
2008,02,17,15,05,7.30
2008,02,17,15,06,7.30
2008,02,17,15,08,7.30
2008,02,17,15,09,7.30
2008,02,17,15,10,7.20
2008,02,17,15,11,7.20
2008,02,17,15,12,7.20
2008,02,17,15,13,7.20
2008,02,17,15,14,7.20
2008,02,17,15,16,7.20
2008,02,17,15,17,7.20
2008,02,17,15,18,7.20
2008,02,17,15,19,7.20
2008,02,17,15,20,7.20
2008,02,17,15,21,7.20
2008,02,17,15,22,7.20
2008,02,17,15,23,7.20
2008,02,17,15,25,7.20
2008,02,17,15,26,7.20
2008,02,17,15,28,7.20
2008,02,17,15,29,7.20
2008,02,17,15,30,7.20
2008,02,17,15,31,7.20
2008,02,17,15,32,7.20
2008,02,17,15,33,7.20
2008,02,17,15,34,7.20
2008,02,17,15,35,7.20
2008,02,17,15,37,7.20
2008,02,17,15,39,7.20
2008,02,17,15,40,7.20
2008,02,17,15,41,7.20
2008,02,17,15,42,7.20
2008,02,17,15,43,7.20
2008,02,17,15,44,7.20
2008,02,17,15,45,7.40
2008,02,17,15,46,7.40
2008,02,17,15,47,7.40
2008,02,17,15,49,7.40
2008,02,17,15,50,7.40
2008,02,17,15,51,7.40
2008,02,17,15,52,7.40
2008,02,17,15,53,7.40
2008,02,17,15,54,7.40
2008,02,17,15,55,7.40
2008,02,17,15,56,7.40
2008,02,17,15,57,7.40
2008,02,17,15,58,7.40
2008,02,17,15,59,7.40
2008,02,17,16,00,7.40
2008,02,17,16,01,7.40
2008,02,17,16,02,7.40
2008,02,17,16,03,7.30
2008,02,17,16,04,7.30
2008,02,17,16,05,7.30
2008,02,17,16,06,7.30
2008,02,17,16,07,7.30
2008,02,17,16,08,7.30
2008,02,17,16,09,7.30
2008,02,17,16,10,7.30
2008,02,17,16,11,7.30
2008,02,17,16,12,7.20
2008,02,17,16,13,7.20
2008,02,17,16,14,7.20
2008,02,17,16,15,7.20
2008,02,17,16,16,7.20
2008,02,17,16,17,7.20
2008,02,17,16,18,7.20
2008,02,17,16,19,7.20
2008,02,17,16,20,7.20
2008,02,17,16,21,7.20
2008,02,17,16,22,7.20
2008,02,17,16,23,7.20
2008,02,17,16,24,7.20
2008,02,17,16,25,7.20
2008,02,17,16,26,7.20
2008,02,17,16,27,7.20
2008,02,17,16,28,7.20
2008,02,17,16,29,7.20
2008,02,17,16,30,7.30
2008,02,17,16,31,7.30
2008,02,17,16,33,7.30
2008,02,17,16,34,7.30
2008,02,17,16,36,7.30
2008,02,17,16,37,7.30
2008,02,17,16,38,7.30
2008,02,17,16,39,7.20
2008,02,17,16,40,7.20
2008,02,17,16,41,7.20
2008,02,17,16,42,7.20
2008,02,17,16,43,7.20
2008,02,17,16,44,7.20
2008,02,17,16,46,7.20
2008,02,17,16,47,7.20
2008,02,17,16,48,7.20
2008,02,17,16,49,7.20
2008,02,17,16,50,7.20
2008,02,17,16,51,7.20
2008,02,17,16,52,7.20
2008,02,17,16,54,7.20
2008,02,17,16,55,7.20
2008,02,17,16,56,7.20
2008,02,17,16,57,7.20
2008,02,17,16,58,7.20
2008,02,17,16,59,7.20
2008,02,17,17,00,7.20
2008,02,17,17,01,7.20
2008,02,17,17,02,7.20
2008,02,17,17,03,7.20
2008,02,17,17,04,7.20
2008,02,17,17,06,7.20
2008,02,17,17,07,7.20
2008,02,17,17,08,7.20
2008,02,17,17,09,7.20
2008,02,17,17,10,7.20
2008,02,17,17,11,7.20
2008,02,17,17,13,7.20
2008,02,17,17,14,7.20
2008,02,17,17,15,7.20
2008,02,17,17,17,7.20
2008,02,17,17,18,7.20
2008,02,17,17,19,7.20
2008,02,17,17,20,7.20
2008,02,17,17,21,7.20
2008,02,17,17,22,7.20
2008,02,17,17,23,7.20
2008,02,17,17,24,7.00
2008,02,17,17,25,7.00
2008,02,17,17,26,7.00
2008,02,17,17,28,7.00
2008,02,17,17,29,7.00
2008,02,17,17,30,7.00
2008,02,17,17,31,7.00
2008,02,17,17,32,7.00
2008,02,17,17,34,7.00
2008,02,17,17,35,7.00
2008,02,17,17,36,7.00
2008,02,17,17,37,7.00
2008,02,17,17,38,7.00
2008,02,17,17,39,7.00
2008,02,17,17,40,7.00
2008,02,17,17,41,7.00
2008,02,17,17,42,7.00
2008,02,17,17,43,7.00
2008,02,17,17,44,7.00
2008,02,17,17,45,7.00
2008,02,17,17,46,7.00
2008,02,17,17,47,7.00
2008,02,17,17,48,7.00
2008,02,17,17,49,7.00
2008,02,17,17,50,7.00
2008,02,17,17,52,6.90
2008,02,17,17,53,6.90
2008,02,17,17,54,6.90
2008,02,17,17,55,6.90
2008,02,17,17,56,6.90
2008,02,17,17,57,6.90
2008,02,17,17,58,6.90
2008,02,17,17,59,6.90
2008,02,17,18,00,6.90
2008,02,17,18,01,6.80
2008,02,17,18,02,6.80
2008,02,17,18,03,6.80
2008,02,17,18,04,6.80
2008,02,17,18,05,6.80
2008,02,17,18,07,6.80
2008,02,17,18,08,6.80
2008,02,17,18,09,6.80
2008,02,17,18,10,6.80
2008,02,17,18,11,6.80
2008,02,17,18,12,6.80
2008,02,17,18,14,6.80
2008,02,17,18,15,6.80
2008,02,17,18,16,6.80
2008,02,17,18,17,6.80
2008,02,17,18,18,6.80
2008,02,17,18,19,6.80
2008,02,17,18,20,6.70
2008,02,17,18,21,6.70
2008,02,17,18,22,6.70
2008,02,17,18,23,6.70
2008,02,17,18,24,6.70
2008,02,17,18,25,6.70
2008,02,17,18,26,6.70
2008,02,17,18,27,6.70
2008,02,17,18,28,6.70
2008,02,17,18,29,6.70
2008,02,17,18,30,6.70
2008,02,17,18,31,6.70
2008,02,17,18,32,6.70
2008,02,17,18,33,6.70
2008,02,17,18,34,6.70
2008,02,17,18,35,6.70
2008,02,17,18,36,6.70
2008,02,17,18,37,6.70
2008,02,17,18,38,6.70
2008,02,17,18,40,6.70
2008,02,17,18,41,6.70
2008,02,17,18,43,6.70
2008,02,17,18,44,6.70
2008,02,17,18,45,6.70
2008,02,17,18,46,6.70
2008,02,17,18,47,6.60
2008,02,17,18,49,6.60
2008,02,17,18,50,6.60
2008,02,17,18,51,6.60
2008,02,17,18,52,6.60
2008,02,17,18,53,6.60
2008,02,17,18,54,6.60
2008,02,17,18,55,6.50
2008,02,17,18,56,6.50
2008,02,17,18,57,6.50
2008,02,17,18,58,6.50
2008,02,17,18,59,6.50
2008,02,17,19,00,6.50
2008,02,17,19,01,6.50
2008,02,17,19,02,6.50
2008,02,17,19,03,6.50
2008,02,17,19,04,6.50
2008,02,17,19,05,6.50
2008,02,17,19,06,6.50
2008,02,17,19,07,6.50
2008,02,17,19,08,6.50
2008,02,17,19,10,6.50
2008,02,17,19,11,6.50
2008,02,17,19,13,6.50
2008,02,17,19,14,6.40
2008,02,17,19,15,6.40
2008,02,17,19,16,6.40
2008,02,17,19,17,6.40
2008,02,17,19,18,6.40
2008,02,17,19,19,6.40
2008,02,17,19,20,6.40
2008,02,17,19,21,6.40
2008,02,17,19,22,6.40
2008,02,17,19,24,6.40
2008,02,17,19,25,6.40
2008,02,17,19,26,6.40
2008,02,17,19,27,6.40
2008,02,17,19,28,6.40
2008,02,17,19,29,6.40
2008,02,17,19,30,6.40
2008,02,17,19,31,6.40
2008,02,17,19,32,6.40
2008,02,17,19,33,6.40
2008,02,17,19,34,6.40
2008,02,17,19,35,6.40
2008,02,17,19,37,6.40
2008,02,17,19,38,6.40
2008,02,17,19,39,6.40
2008,02,17,19,40,6.40
2008,02,17,19,41,6.30
2008,02,17,19,42,6.30
2008,02,17,19,43,6.30
2008,02,17,19,44,6.30
2008,02,17,19,45,6.30
2008,02,17,19,46,6.30
2008,02,17,19,47,6.30
2008,02,17,19,48,6.30
2008,02,17,19,49,6.30
2008,02,17,19,50,6.30
2008,02,17,19,51,6.30
2008,02,17,19,52,6.30
2008,02,17,19,53,6.30
2008,02,17,19,54,6.30
2008,02,17,19,55,6.30
2008,02,17,19,56,6.30
2008,02,17,19,57,6.30
2008,02,17,19,58,6.30